Location: Jackson Park
(37.2862°N, 79.9123°W)
Time: 12:26:44
(UTC+00:00)

ISS - Pass Details

Date: 23 April 2026
Orbit: 414 x 424 km, 51.6° (Epoch: 12 May)

Event Time Altitude Azimuth Distance (km) Brightness Sun altitude
Exits shadow 08:56:01 21° 315° (NW) 998 -2.0 -18.6°
Maximum altitude 08:56:35 22° 331° (NNW) 970 -1.9 -18.5°
Drops below altitude 10° 08:59:17 10° 25° (NNE) 1,502 -0.1 -18.0°
Sets 09:01:43 0° 41° (NE) 2,371 1.5 -17.6°
